URMM Weather Reports


Display with metric or nautical units.
time (UTC)temp
F
wind
direction
speed
MPH
gust
MPH
rain 1hr
in
rain 24hr
in
rain mn
in
humidity
%
barometer
mb
20260507043045 53 300 9.0 0.0 0.00 0.00 0.00 81 1019.0
20260507040044 51 310 9.0 0.0 0.00 0.00 0.00 81 1019.0
20260507033044 51 310 9.0 0.0 0.00 0.00 0.00 81 1018.0
20260507030044 50 300 7.0 0.0 0.00 0.00 0.00 87 1018.0
20260507023045 50 300 9.0 0.0 0.00 0.00 0.00 87 1018.0
20260507020043 50 300 9.0 0.0 0.00 0.00 0.00 87 1017.0
20260507013044 51 290 9.0 0.0 0.00 0.00 0.00 81 1017.0
20260507010043 51 290 9.0 0.0 0.00 0.00 0.00 81 1017.0
20260507003045 51 300 9.0 0.0 0.00 0.00 0.00 87 1017.0
20260506233045 55 250 9.0 0.0 0.00 0.00 0.00 71 1017.0
20260506230044 55 250 9.0 0.0 0.00 0.00 0.00 71 1017.0
20260506223044 55 250 11.0 0.0 0.00 0.00 0.00 66 1017.0
20260506220046 55 260 11.0 0.0 0.00 0.00 0.00 66 1017.0
20260506213045 57 250 16.0 0.0 0.00 0.00 0.00 62 1017.0
20260506210045 55 250 13.0 0.0 0.00 0.00 0.00 66 1017.0
20260506203046 55 250 13.0 0.0 0.00 0.00 0.00 66 1017.0
20260506200047 53 250 16.0 0.0 0.00 0.00 0.00 76 1017.0
20260506193045 55 250 13.0 0.0 0.00 0.00 0.00 66 1017.0
20260506190045 53 250 11.0 0.0 0.00 0.00 0.00 71 1017.0
20260506183045 53 270 9.0 0.0 0.00 0.00 0.00 71 1017.0
20260506173045 57 270 9.0 0.0 0.00 0.00 0.00 67 1016.0
20260506170045 57 270 11.0 0.0 0.00 0.00 0.00 67 1016.0
20260506163046 59 290 9.0 0.0 0.00 0.00 0.00 62 1016.0
20260506153046 60 300 11.0 0.0 0.00 0.00 0.00 63 1015.0
20260506150045 62 300 11.0 0.0 0.00 0.00 0.00 55 1015.0
20260506143045 64 310 9.0 0.0 0.00 0.00 0.00 45 1015.0
20260506140046 64 330 11.0 0.0 0.00 0.00 0.00 42 1014.0
20260506133046 66 330 9.0 0.0 0.00 0.00 0.00 45 1014.0
20260506130045 66 300 11.0 0.0 0.00 0.00 0.00 39 1014.0
20260506123044 66 300 11.0 0.0 0.00 0.00 0.00 42 1014.0
20260506120045 64 310 11.0 0.0 0.00 0.00 0.00 45 1014.0
20260506113045 64 330 11.0 0.0 0.00 0.00 0.00 42 1014.0
20260506110045 64 290 11.0 0.0 0.00 0.00 0.00 51 1015.0
20260506103045 62 310 9.0 0.0 0.00 0.00 0.00 51 1015.0
20260506100047 60 300 11.0 0.0 0.00 0.00 0.00 51 1015.0
20260506093046 62 290 13.0 0.0 0.00 0.00 0.00 55 1015.0
20260506090044 62 290 11.0 0.0 0.00 0.00 0.00 51 1015.0
20260506083045 60 300 9.0 0.0 0.00 0.00 0.00 55 1015.0